User: anonymous   Login
Location: Unspecified
(0.0000°N, 0.0000°E)
Time: 07:09:19
(UTC+00:00)
Language:

SL-12 R/B(2) - Orbit

View from above orbital plane
View from above orbital plane
View from above satellite
View from above satellite

Ground track
Ground track

The orbit data is extracted from the following two-line orbital elements,

1 26486U 00051D   20296.50402397 -.00000033 +00000-0 +00000-0 0  9998
2 26486 062.7888 041.8673 7538725 269.6414 015.7130 01.45764124107149
Epoch (UTC): 22 October 2020 12:05:47
Eccentricity: 0.7538725
inclination: 62.7888°
perigee height: 1709 km
apogee height: 51249 km
right ascension of ascending node: 41.8673°
argument of perigee: 269.6414°
revolutions per day: 1.45764124
mean anomaly at epoch: 15.7130°
orbit number at epoch: 10714

The dashed part of the orbit path shows where the satellite is in the earth's shadow,  

DLR